| time (UTC) | temp F | wind direction | speed MPH | gust MPH | rain 1hr in | rain 24hr in | rain mn in | humidity % | barometer mb |
| 20260906034558 | 70 | 126 | 1.0 | 3.0 | 0.00 | 0.00 | 0.00 | 97 | 1014.3 |
| 20260906033103 | 70 | 0 | 0.0 | 1.0 | 0.00 | 0.00 | 0.00 | 97 | 1014.2 |
| 20260906031544 | 71 | 0 | 0.0 | 1.0 | 0.00 | 0.00 | 0.00 | 96 | 1014.2 |
| 20260906030047 | 71 | 0 | 0.0 | 4.0 | 0.00 | 0.00 | 0.00 | 97 | 1014.3 |
| 20260906024554 | 71 | 137 | 2.0 | 3.0 | 0.00 | 0.00 | 0.00 | 96 | 1013.8 |
| 20260906023044 | 71 | 137 | 0.0 | 1.0 | 0.00 | 0.00 | 0.00 | 96 | 1013.8 |
| 20260906021546 | 72 | 0 | 0.0 | 2.0 | 0.00 | 0.00 | 0.00 | 96 | 1013.9 |
| 20260906020046 | 72 | 137 | 1.0 | 2.0 | 0.00 | 0.00 | 0.00 | 96 | 1013.7 |
| 20260906014543 | 72 | 137 | 0.0 | 1.0 | 0.00 | 0.00 | 0.00 | 95 | 1013.6 |
| 20260906013049 | 72 | 0 | 0.0 | 1.0 | 0.00 | 0.00 | 0.00 | 95 | 1013.5 |
| 20260906011547 | 73 | 0 | 0.0 | 1.0 | 0.00 | 0.00 | 0.00 | 94 | 1013.1 |
| 20260906010047 | 73 | 0 | 0.0 | 2.0 | 0.00 | 0.00 | 0.00 | 94 | 1013.1 |
| 20260906004546 | 74 | 0 | 0.0 | 0.0 | 0.00 | 0.00 | 0.00 | 93 | 1012.9 |
| 20260906003050 | 75 | 0 | 0.0 | 2.0 | 0.00 | 0.00 | 0.00 | 91 | 1012.7 |
| 20260906001547 | 75 | 278 | 1.0 | 2.0 | 0.00 | 0.00 | 0.00 | 92 | 1012.4 |
| 20260906000045 | 76 | 0 | 0.0 | 1.0 | 0.00 | 0.00 | 0.00 | 90 | 1012.5 |
| 20260905234544 | 77 | 278 | 1.0 | 2.0 | 0.00 | 0.00 | 0.00 | 87 | 1012.2 |
| 20260905233057 | 79 | 0 | 0.0 | 1.0 | 0.00 | 0.00 | 0.00 | 85 | 1012.4 |
| 20260905231545 | 80 | 0 | 0.0 | 2.0 | 0.00 | 0.00 | 0.00 | 84 | 1012.2 |
| 20260905230047 | 81 | 0 | 0.0 | 1.0 | 0.00 | 0.00 | 0.00 | 80 | 1012.2 |
| 20260905224611 | 83 | 0 | 0.0 | 2.0 | 0.00 | 0.00 | 0.00 | 72 | 1012.1 |
| 20260905223047 | 84 | 0 | 0.0 | 3.0 | 0.00 | 0.00 | 0.00 | 70 | 1012.3 |
| 20260905221545 | 84 | 0 | 0.0 | 2.0 | 0.00 | 0.00 | 0.00 | 70 | 1012.2 |
| 20260905220051 | 85 | 279 | 1.0 | 3.0 | 0.00 | 0.00 | 0.00 | 68 | 1012.1 |
| 20260905214551 | 84 | 316 | 0.0 | 3.0 | 0.00 | 0.00 | 0.00 | 70 | 1012.4 |
| 20260905213045 | 84 | 257 | 2.0 | 6.0 | 0.00 | 0.00 | 0.00 | 70 | 1012.5 |
| 20260905211549 | 83 | 281 | 1.0 | 5.0 | 0.00 | 0.00 | 0.00 | 74 | 1012.7 |
| 20260905210100 | 82 | 273 | 3.0 | 7.0 | 0.00 | 0.00 | 0.00 | 71 | 1012.6 |
| 20260905204545 | 82 | 0 | 2.0 | 7.0 | 0.00 | 0.00 | 0.00 | 74 | 1012.7 |
| 20260905203048 | 81 | 175 | 2.0 | 8.0 | 0.00 | 0.00 | 0.00 | 76 | 1013.0 |
| 20260905201547 | 81 | 140 | 1.0 | 4.0 | 0.00 | 0.00 | 0.00 | 76 | 1013.1 |
| 20260905200048 | 80 | 0 | 0.0 | 4.0 | 0.00 | 0.00 | 0.00 | 78 | 1013.3 |
| 20260905194549 | 78 | 118 | 1.0 | 4.0 | 0.00 | 0.00 | 0.00 | 80 | 1013.4 |
| 20260905193043 | 79 | 0 | 0.0 | 2.0 | 0.00 | 0.00 | 0.00 | 77 | 1013.9 |
| 20260905191544 | 79 | 269 | 1.0 | 4.0 | 0.00 | 0.00 | 0.00 | 78 | 1013.8 |
| 20260905190051 | 78 | 120 | 2.0 | 4.0 | 0.00 | 0.00 | 0.00 | 78 | 1013.0 |
| 20260905184557 | 78 | 302 | 2.0 | 4.0 | 0.00 | 0.00 | 0.00 | 77 | 1013.4 |
| 20260905183045 | 80 | 0 | 1.0 | 4.0 | 0.00 | 0.00 | 0.00 | 68 | 1012.9 |
| 20260905181544 | 81 | 31 | 2.0 | 9.0 | 0.00 | 0.00 | 0.00 | 68 | 1013.3 |
| 20260905180059 | 80 | 0 | 0.0 | 4.0 | 0.00 | 0.00 | 0.00 | 77 | 1013.8 |
| 20260905174546 | 80 | 347 | 2.0 | 13.0 | 0.00 | 0.00 | 0.00 | 74 | 1014.6 |
| 20260905173103 | 85 | 332 | 9.0 | 27.0 | 0.00 | 0.00 | 0.00 | 62 | 1015.6 |
| 20260905171545 | 92 | 279 | 2.0 | 7.0 | 0.00 | 0.00 | 0.00 | 63 | 1014.5 |
| 20260905170048 | 93 | 82 | 1.0 | 5.0 | 0.00 | 0.00 | 0.00 | 59 | 1014.6 |
| 20260905164549 | 95 | 37 | 1.0 | 7.0 | 0.00 | 0.00 | 0.00 | 60 | 1014.8 |
| 20260905163044 | 92 | 285 | 2.0 | 6.0 | 0.00 | 0.00 | 0.00 | 62 | 1014.7 |
| 20260905161601 | 92 | 91 | 2.0 | 6.0 | 0.00 | 0.00 | 0.00 | 63 | 1015.0 |
| 20260905160042 | 92 | 0 | 1.0 | 5.0 | 0.00 | 0.00 | 0.00 | 65 | 1015.5 |
| 20260905154546 | 91 | 0 | 1.0 | 4.0 | 0.00 | 0.00 | 0.00 | 68 | 1015.5 |
| 20260905153045 | 91 | 322 | 0.0 | 8.0 | 0.00 | 0.00 | 0.00 | 69 | 1015.2 |
| 20260905151544 | 88 | 144 | 2.0 | 6.0 | 0.00 | 0.00 | 0.00 | 70 | 1015.3 |
| 20260905150050 | 87 | 143 | 1.0 | 5.0 | 0.00 | 0.00 | 0.00 | 72 | 1015.3 |
| 20260905144545 | 86 | 254 | 2.0 | 4.0 | 0.00 | 0.00 | 0.00 | 75 | 1015.1 |
| 20260905143046 | 85 | 278 | 1.0 | 6.0 | 0.00 | 0.00 | 0.00 | 79 | 1015.2 |
| 20260905141545 | 84 | 282 | 1.0 | 5.0 | 0.00 | 0.00 | 0.00 | 78 | 1015.2 |
| 20260905140046 | 82 | 143 | 2.0 | 8.0 | 0.00 | 0.00 | 0.00 | 82 | 1015.1 |
| 20260905134546 | 82 | 130 | 2.0 | 4.0 | 0.00 | 0.00 | 0.00 | 82 | 1015.2 |
| 20260905133043 | 81 | 0 | 0.0 | 3.0 | 0.00 | 0.00 | 0.00 | 85 | 1015.2 |
| 20260905131544 | 78 | 279 | 1.0 | 4.0 | 0.00 | 0.00 | 0.00 | 87 | 1015.3 |
| 20260905130050 | 80 | 0 | 0.0 | 2.0 | 0.00 | 0.00 | 0.00 | 90 | 1015.6 |
| 20260905124546 | 77 | 279 | 0.0 | 2.0 | 0.00 | 0.00 | 0.00 | 95 | 1015.6 |
| 20260905123053 | 75 | 0 | 0.0 | 1.0 | 0.00 | 0.00 | 0.00 | 99 | 1015.5 |
| 20260905121553 | 73 | 0 | 0.0 | 0.0 | 0.00 | 0.00 | 0.00 | 99 | 1015.4 |
| 20260905120050 | 71 | 290 | 2.0 | 3.0 | 0.00 | 0.00 | 0.00 | 98 | 1015.3 |
| 20260905114544 | 70 | 0 | 0.0 | 1.0 | 0.00 | 0.00 | 0.00 | 98 | 1015.3 |
| 20260905113043 | 69 | 0 | 0.0 | 1.0 | 0.00 | 0.00 | 0.00 | 98 | 1015.2 |
| 20260905111547 | 70 | 0 | 0.0 | 2.0 | 0.00 | 0.00 | 0.00 | 98 | 1014.7 |
| 20260905110045 | 69 | 0 | 0.0 | 0.0 | 0.00 | 0.00 | 0.00 | 98 | 1014.5 |
| 20260905104546 | 70 | 0 | 0.0 | 1.0 | 0.00 | 0.00 | 0.00 | 98 | 1014.4 |
| 20260905103043 | 70 | 0 | 0.0 | 1.0 | 0.00 | 0.00 | 0.00 | 98 | 1014.3 |
| 20260905101559 | 70 | 0 | 0.0 | 1.0 | 0.00 | 0.00 | 0.00 | 98 | 1014.2 |
| 20260905100114 | 70 | 0 | 0.0 | 1.0 | 0.00 | 0.00 | 0.00 | 98 | 1014.2 |
| 20260905094550 | 70 | 0 | 0.0 | 1.0 | 0.00 | 0.00 | 0.00 | 98 | 1014.1 |
| 20260905093043 | 71 | 283 | 0.0 | 2.0 | 0.00 | 0.00 | 0.00 | 98 | 1014.1 |
| 20260905091557 | 70 | 0 | 0.0 | 2.0 | 0.00 | 0.00 | 0.00 | 98 | 1014.1 |
| 20260905090045 | 71 | 0 | 0.0 | 1.0 | 0.00 | 0.00 | 0.00 | 98 | 1014.2 |
| 20260905084550 | 71 | 0 | 0.0 | 1.0 | 0.00 | 0.00 | 0.00 | 98 | 1014.3 |
| 20260905083103 | 71 | 0 | 0.0 | 0.0 | 0.00 | 0.00 | 0.00 | 98 | 1014.5 |
| 20260905081546 | 71 | 0 | 0.0 | 1.0 | 0.00 | 0.00 | 0.00 | 98 | 1014.5 |
| 20260905080047 | 71 | 0 | 0.0 | 1.0 | 0.00 | 0.00 | 0.00 | 98 | 1014.6 |
| 20260905074546 | 71 | 0 | 0.0 | 1.0 | 0.00 | 0.00 | 0.00 | 98 | 1014.8 |
| 20260905073050 | 72 | 283 | 0.0 | 2.0 | 0.00 | 0.00 | 0.00 | 97 | 1014.9 |
| 20260905071546 | 72 | 0 | 0.0 | 1.0 | 0.00 | 0.00 | 0.00 | 98 | 1015.0 |
| 20260905070048 | 72 | 283 | 0.0 | 2.0 | 0.00 | 0.00 | 0.00 | 98 | 1015.0 |
| 20260905064543 | 72 | 0 | 0.0 | 1.0 | 0.00 | 0.00 | 0.00 | 97 | 1015.2 |
| 20260905063054 | 72 | 0 | 0.0 | 1.0 | 0.00 | 0.00 | 0.00 | 97 | 1015.4 |
| 20260905061546 | 72 | 0 | 0.0 | 2.0 | 0.00 | 0.00 | 0.00 | 97 | 1015.5 |
| 20260905060048 | 73 | 283 | 0.0 | 2.0 | 0.00 | 0.00 | 0.00 | 97 | 1015.8 |
| 20260905054622 | 73 | 283 | 0.0 | 2.0 | 0.00 | 0.00 | 0.00 | 97 | 1016.0 |
| 20260905053044 | 73 | 283 | 0.0 | 1.0 | 0.00 | 0.00 | 0.00 | 97 | 1016.1 |
| 20260905051548 | 73 | 0 | 0.0 | 0.0 | 0.00 | 0.00 | 0.00 | 97 | 1016.2 |
| 20260905050050 | 74 | 0 | 0.0 | 0.0 | 0.00 | 0.00 | 0.00 | 97 | 1016.2 |
| 20260905044551 | 74 | 0 | 0.0 | 0.0 | 0.00 | 0.00 | 0.00 | 96 | 1016.3 |
| 20260905043044 | 74 | 0 | 0.0 | 2.0 | 0.00 | 0.00 | 0.00 | 96 | 1016.1 |
| 20260905041546 | 75 | 0 | 0.0 | 2.0 | 0.00 | 0.00 | 0.00 | 97 | 1016.2 |